This is the latest recevied weather packets stored in our database for station/object DB0MOD. If no packets are shown the sender has not sent any weather packets the latest 10 day(s).
| Time | Temp. | Humidity | Pressure | Rain* | Wind** | Luminosity | Snow |
|---|---|---|---|---|---|---|---|
| 1778152737 | 12.22° C | 10% | 1013 hPa | 0 mm | - | - | - |
| 1778152437 | 12.22° C | 10% | 1013.1 hPa | 0 mm | - | - | - |
| 1778152137 | 12.22° C | 10% | 1013.1 hPa | 0 mm | - | - | - |
| 1778151837 | 12.22° C | 10% | 1013 hPa | 0 mm | - | - | - |
| 1778151538 | 12.22° C | 10% | 1013.1 hPa | 0 mm | - | - | - |
| 1778151237 | 11.67° C | 10% | 1013.1 hPa | 0 mm | - | - | - |
| 1778150937 | 11.67° C | 10% | 1013.2 hPa | 0 mm | - | - | - |
| 1778150637 | 11.11° C | 10% | 1013.2 hPa | 0 mm | - | - | - |
| 1778150337 | 10.56° C | 10% | 1013.3 hPa | 0 mm | - | - | - |
| 1778150037 | 10.56° C | 10% | 1013.2 hPa | 0 mm | - | - | - |
| 1778149737 | 10.56° C | 10% | 1013.3 hPa | 0 mm | - | - | - |
| 1778149437 | 10° C | 10% | 1013.4 hPa | 0 mm | - | - | - |
| 1778149138 | 9.44° C | 10% | 1013.3 hPa | 0 mm | - | - | - |
| 1778148838 | 8.89° C | 10% | 1013.4 hPa | 0 mm | - | - | - |
| 1778148537 | 9.44° C | 10% | 1013.4 hPa | 0 mm | - | - | - |
| 1778148238 | 9.44° C | 10% | 1013.5 hPa | 0 mm | - | - | - |
| 1778147938 | 9.44° C | 10% | 1013.2 hPa | 0 mm | - | - | - |
| 1778147638 | 9.44° C | 10% | 1013.3 hPa | 0 mm | - | - | - |
| 1778147338 | 10° C | 10% | 1013.3 hPa | 0 mm | - | - | - |
| 1778147038 | 10° C | 10% | 1013.2 hPa | 0 mm | - | - | - |
| 1778146738 | 8.89° C | 10% | 1013.2 hPa | 0 mm | - | - | - |
| 1778146438 | 7.78° C | 10% | 1013 hPa | 0 mm | - | - | - |
| 1778146138 | 7.78° C | 10% | 1013.1 hPa | 0 mm | - | - | - |
| 1778145838 | 7.78° C | 10% | 1013 hPa | 0 mm | - | - | - |
| 1778145538 | 7.78° C | 10% | 1012.9 hPa | 0 mm | - | - | - |
* Rain latest hour (hover to see other rain measurements)
** Current wind speed in m/s (hover to see current wind gust speed)